Torna al catalogo

GALILEO 16

26C

AttivoNavigazioneMEO
NORAD 41860·PAYLOAD·🇪🇺 EU

Lanciato Nov 17, 2016 da Guiana Space Centre

Loading…

Prossimi Passaggi (prossime 24 ore)

TLE

AggiornatoSource: CelesTrak SupGP

Epoca: Sep 13, 2026, 23:59 UTC

1 41860C 16069B   26256.99979167  .00000000  00000+0  00000+0 0  2563
2 41860  55.5531  98.6216 0003791  41.8185 105.4488  1.70474237    10

Traccia GALILEO 16 in tempo reale con AllMySat

Download on the App Store